SCP
0 -0 0 -0 -0 -0 -0 -0 -0 -0 -0 -0 -0 -0 -0 -0 -0 -0 -0 -0 -0 -0 -0 -0 -0 -0 -0 -0 -0 -0 -0 -0 -0 -0 -0 -0 -0 -0 -0 -0 -0 0 -0
0 -0 -0 -0 -0 -0 -0 -0 -0 -0 -0 -0 -0 -0 -0 -0 -0 -0 -0 -0 -0 -0 -0 -0 -0 -0 -0 -0 -0 -0 -0 -0 -0 -0 -0 -0 -0 -0 -0 -0 -0 -0 -0
0 0 0 -0 -0 -0 -0 -0 -0 -0 -0 -0 -0 -0 -0 -0 -0 -0 -0 -0 0 -0 -0 -0 -0 -0 -0 -0 -0 -0 -0 -0 -0 -0 -0 0 0 -0 -0 -0 -0 -0 -0
0 0 0 0 -0 -0 -0 -0 0 -0 -0 -0 -0 -0 -0 -0 -0 -0 -0 -0 -0 -0 -0 -0 -0 -0 -0 -0 -0 -0 -0 0 0 0 0 0 0 0 -0 0 0 0 0
0 0 0 0 0 -0 -0 -0 -0 0 0 0 0 0 0 0 0 0 0 0 0 0 0 -0 -0 -0 -0 -0 0 0 0 0 0 0 0 0 0 0 -0 0 0 0 0
0 0 0 0 0 0 -0 -0 0 0 0 0 0 0 0 0 0 0 0 0 0 0 0 0 0 0 0 0 0 0 0 0 0 0 0 0 0 0 0 0 0 0 0
-0 -0 -0 0 0 0 0 0 0 0 0 0 0 0 0 0 0 0 0 0 0 0 0 0 0 0 0 0 0 0 0 0 0 0 0 0 0 0 0 0 0 0 0
-0 -0 -0 -0 -0 0 0 0 0 0 0 0 0 0 0 0 0 0 0 0 0 0 0 0 0 0 0 0 0 0 0 0 0 0 0 0 0 0 0 0 0 0 0
-0 -0 -0 -0 -0 -0 0 0 0 0 0 0 0 0 0 0 0 0 0 0 0 0 0 0 0 0 0 0 0 0 0 0 0 0 0 0 0 0 0 0 0 0 0
-0 -0 -0 -0 0 0 0 0 0 0 0 0 0 0 0 0 0 0 0 0 0 0 0 0 0 0 0 0 0 0 0 0 0 0 0 0 0 0 0 0 0 0 0
0 0 0 0 0 0 0 0 0 0 0 0 0 0 0 0 0 0 0 0 0 0 0 0 0 0 0 0 0 0 0 0 0 0 0 0 0 0 0 0 0 0 0
0 0 0 0 0 0 0 0 0 0 0 0 0 0 0 0 0 0 0 0 0 0 0 0 0 0 0 0 0 0 0 0 0 0 0 0 0 0 0 0 0 0 0
0 0 0 0 0 0 0 0 0 0 0 0 0 0 0 0 0 0 0 0 0 0 0 0 0 0 0 0 0 0 0 0 0 0 0 0 0 0 0 0 0 0 0
0 0 0 0 0 0 0 0 0 0 0 0 0 0 0 0 0 0 0 0 0 0 0 0 0 0 0 0 0 0 0 0 0 0 0 0 0 0 0 0 0 0 0
0 0 0 0 0 0 0 0 0 0 0 0 0 0 0 0 0 0 0 0 0 0 0 0 0 0 0 0 0 0 0 0 0 0 0 0 0 0 0 0 0 0 0
0 0 0 0 0 0 0 0 0 0 0 0 0 0 0 0 0 0 0 0 0 0 0 0 0 0 0 0 0 0 0 0 0 0 0 0 0 0 0 0 0 0 0
0 0 0 0 0 0 0 0 0 0 0 0 0 0 0 0 0 0 0 0 0 0 0 0 0 0 0 0 0 0 0 0 0 0 0 0 0 0 0 0 0 0 0
0 0 0 0 0 0 0 0 0 0 0 0 0 0 0 0 0 0 0 0 0 0 0 0 0 0 0 0 0 0 0 0 0 0 0 0 0 0 0 0 0 0 0
0 0 0 0 0 0 0 0 0 0 0 0 0 0 0 0 0 0 0 0 0 0 0 0 0 0 0 0 0 0 0 0 0 0 0 0 0 0 0 0 0 0 0
0 0 0 0 0 0 0 0 0 0 -0 0 0 0 0 0 0 -0 0 0 0 0 0 0 0 0 0 0 0 0 0 0 0 0 0 0 0 0 0 0 0 0 0
-0 -0 0 0 0 0 0 0 0 0 0 0 -0 0 0 0 0 0 0 0 0 0 0 0 0 0 0 0 0 0 0 0 0 0 0 0 0 0 0 0 0 0 0
-0 -0 -0 -0 -0 -0 -0 0 -0 -0 -0 -0 -0 0 0 -0 0 0 0 0 0 0 0 0 0 0 0 0 0 0 0 0 0 0 0 0 0 0 0 0 0 0 0
-0 -0 -0 -0 -0 -0 -0 -0 -0 -0 -0 0 0 0 0 -0 -0 -0 0 -0 -0 -0 0 0 0 0 0 0 0 0 0 0 0 0 0 0 0 0 0 0 0 0 0
-0 -0 -0 -0 -0 -0 -0 -0 -0 -0 -0 -0 -0 -0 -0 -0 -0 -0 -0 -0 0 -0 0 0 0 0 0 0 0 0 0 0 0 0 0 0 0 0 0 0 0 0 0
-0 -0 -0 -0 -0 -0 -0 -0 -0 -0 -0 -0 -0 -0 -0 0 0 -0 -0 -0 -0 -0 0 0 0 0 0 0 0 0 0 0 0 0 0 0 0 0 0 0 0 0 0
-0 -0 -0 -0 -0 -0 -0 -0 -0 -0 -0 -0 -0 -0 -0 -0 -0 0 0 -0 -0 -0 -0 0 0 0 0 0 0 0 0 0 0 0 0 0 0 0 0 0 0 0 0
Wind_Speed_500mb
37 33 30 29 28 26 24 22 22 22 22 21 17 13 12 12 12 13 14 17 18 18 21 21 19 14 16 17 20 20 18 18 18 20 22 23 25 25 27 29 30 26 27
36 31 27 26 26 24 21 21 23 23 21 17 13 11 10 8 8 11 13 14 19 18 20 19 15 13 15 18 20 17 15 13 13 16 17 17 17 19 20 23 26 24 23
33 25 20 21 24 22 20 21 22 22 16 13 11 9 6 4 2 3 8 12 17 20 16 15 17 17 19 20 18 14 10 8 8 9 12 14 16 13 14 18 19 18 16
30 24 23 21 19 19 19 20 21 17 13 12 8 4 1 2 4 4 6 10 16 24 20 19 20 20 21 19 16 12 7 4 3 3 6 10 11 11 14 16 16 13 11
26 21 24 23 20 20 18 17 18 14 12 8 4 0 4 6 7 6 7 8 14 23 18 17 19 22 20 18 15 12 9 6 6 8 8 9 6 10 15 16 13 9 7
16 15 22 22 18 17 17 15 13 11 8 4 1 2 4 5 6 6 4 5 8 12 18 19 22 20 18 18 17 14 12 11 11 12 12 11 10 15 18 15 11 8 4
19 16 16 16 18 17 17 15 13 10 7 4 5 5 5 4 2 1 1 4 7 12 14 18 19 20 19 20 19 17 16 14 13 13 13 13 15 19 21 14 11 7 5
20 24 24 20 16 15 16 14 12 10 8 7 7 7 7 6 4 3 5 7 10 11 13 14 16 17 19 20 19 17 16 15 14 14 14 15 16 17 14 10 9 6 5
22 26 22 19 17 17 17 15 16 14 13 12 11 10 8 6 6 5 5 7 8 9 11 12 14 16 17 17 16 14 13 13 14 15 16 17 15 14 12 9 6 5 5
24 20 17 18 19 17 17 18 18 18 18 17 16 15 13 12 11 10 10 8 7 8 11 12 14 15 15 15 13 13 13 13 14 15 17 16 14 14 13 9 7 6 5
34 26 10 11 15 15 18 20 20 20 25 22 22 21 20 18 18 16 14 13 13 13 14 15 16 17 17 16 15 14 15 15 16 17 17 14 8 9 10 12 12 10 8
54 50 39 11 5 11 16 24 25 22 22 29 30 29 26 25 24 23 22 21 20 20 20 20 21 21 20 19 19 18 18 18 20 20 20 18 15 15 18 20 17 15 16
65 54 45 37 18 10 8 19 27 28 25 26 31 38 36 34 33 32 31 30 28 27 27 26 27 26 26 26 26 24 24 23 23 24 23 23 22 21 22 21 22 21 22
80 70 59 52 49 42 20 13 34 25 21 34 34 37 41 45 43 41 40 37 36 34 33 33 33 33 33 33 32 32 31 30 27 26 26 26 27 26 26 26 27 27 27
79 73 74 64 55 48 41 32 22 14 20 33 36 35 45 54 52 50 49 47 45 42 41 40 39 40 40 39 39 38 36 35 34 30 29 29 29 31 31 31 31 32 32
75 72 71 68 64 57 48 44 35 31 17 11 17 14 46 39 53 63 58 56 54 51 47 46 45 45 46 46 46 44 43 42 40 36 34 34 35 35 35 34 34 34 33
67 68 70 65 63 59 59 57 54 41 39 28 27 29 26 21 22 59 63 63 59 59 56 52 51 51 52 52 54 51 48 46 46 43 42 39 39 39 37 37 35 34 32
66 64 62 63 61 57 58 56 54 52 51 49 40 37 39 32 33 20 43 54 65 71 64 59 56 58 58 58 59 56 54 53 47 48 50 47 43 42 41 40 38 37 38
68 70 68 65 63 63 57 54 56 55 54 56 54 54 52 46 48 33 21 23 39 52 73 72 66 59 61 62 63 54 59 58 51 54 53 48 49 49 46 44 42 41 42
67 68 69 71 70 68 63 60 57 57 59 58 58 55 57 53 56 53 42 35 32 28 38 70 82 75 71 66 62 64 65 67 62 64 61 56 56 56 54 50 48 46 45
68 72 75 73 72 72 73 74 71 69 65 62 62 65 64 59 59 61 56 55 53 42 33 35 56 82 77 77 75 75 76 77 74 76 73 67 64 63 62 59 54 51 49
68 74 76 73 71 71 70 69 70 69 67 67 64 65 68 69 67 66 65 62 58 53 52 38 28 37 81 85 95 87 72 80 82 85 82 78 75 72 72 68 63 57 54
66 70 74 70 67 68 70 70 69 67 67 70 72 72 72 69 69 70 68 67 67 62 58 52 48 34 41 70 82 93 34 53 66 73 80 80 78 78 76 74 70 65 59
57 62 68 68 64 65 67 69 72 74 76 73 72 70 69 69 70 70 71 71 69 69 64 59 54 52 41 36 52 89 99 74 50 41 55 62 62 64 66 68 70 70 65
51 56 63 66 61 64 68 69 71 69 68 70 72 74 72 69 68 71 74 73 73 71 70 69 60 56 57 47 45 53 91 106 100 87 71 60 59 62 65 65 63 68 67
42 49 59 62 58 62 67 69 70 70 71 72 74 77 78 77 74 69 71 73 75 76 74 73 70 64 58 57 58 53 61 80 82 95 85 83 83 83 82 79 76 72 71
Wind_Direction_500mb
171 169 166 168 169 169 167 163 160 157 155 149 145 138 129 122 116 117 131 140 137 148 132 133 136 140 129 125 131 121 108 93 83 75 67 63 58 53 51 50 51 58 61
175 171 171 170 170 167 165 157 156 154 153 149 144 137 134 130 122 114 128 142 134 131 145 157 168 155 147 139 141 133 120 102 84 72 59 49 47 45 43 42 42 50 60
176 166 170 171 167 162 157 155 155 152 154 149 146 146 148 147 147 143 146 151 161 143 141 163 184 162 159 153 153 150 136 117 92 72 54 40 28 28 26 23 30 41 60
175 168 162 175 160 158 166 163 158 155 155 153 154 157 179 251 260 234 215 185 184 175 147 155 165 159 167 166 173 174 170 152 111 9 356 358 20 16 8 6 12 25 48
183 169 170 179 166 166 171 163 159 161 162 160 157 9 321 305 288 271 261 235 210 201 171 169 173 164 174 183 192 195 204 226 264 296 314 321 352 340 334 340 351 10 35
186 181 174 183 189 185 185 184 173 176 174 174 216 304 304 300 301 313 282 240 209 182 165 168 168 178 187 199 210 219 238 254 271 287 299 302 301 318 314 323 328 340 348
171 173 184 201 204 201 199 200 196 194 198 226 272 298 304 283 219 251 143 130 129 143 157 165 180 193 203 216 227 236 246 259 272 281 286 286 286 289 302 308 314 321 309
167 179 185 188 205 231 219 217 218 224 234 239 257 287 305 291 259 187 155 143 141 148 160 175 189 201 212 223 233 241 251 259 271 281 285 286 285 287 295 298 304 308 298
157 176 187 196 207 202 237 228 231 233 242 253 260 271 282 271 260 249 209 180 153 152 159 171 183 195 207 218 226 234 245 256 272 285 294 298 295 299 305 299 293 296 292
124 169 188 202 211 216 211 243 242 246 251 255 257 264 272 269 249 237 225 217 203 202 202 199 200 201 206 213 224 236 249 265 282 292 302 303 296 291 300 302 287 279 271
68 73 108 206 222 222 228 224 250 264 267 262 261 258 262 265 261 251 240 234 228 222 218 215 213 214 220 231 241 250 261 270 284 294 298 301 314 271 289 288 284 264 252
39 37 44 71 161 233 243 237 226 243 281 284 277 266 262 263 263 260 252 242 237 233 231 227 227 230 232 241 248 256 265 274 286 292 291 291 287 270 269 268 269 264 263
33 32 33 38 52 53 285 273 245 232 237 262 291 284 268 261 262 259 255 250 246 242 241 239 239 239 241 244 252 261 268 275 284 289 286 281 280 279 282 281 272 268 264
39 38 29 26 24 36 31 346 263 245 251 255 250 271 280 275 264 262 260 256 252 248 248 247 247 247 248 251 254 259 265 271 278 285 286 283 282 279 281 282 275 270 269
42 40 37 32 24 20 22 20 6 266 258 263 259 256 259 265 272 271 265 260 258 252 251 250 251 252 254 256 258 259 261 264 269 276 284 286 282 278 276 278 276 272 271
34 35 35 35 35 28 22 13 9 5 352 289 306 309 266 263 252 258 267 266 262 260 258 256 254 255 257 257 258 260 261 261 262 269 274 282 285 282 278 277 274 269 267
29 24 26 30 27 32 31 28 24 4 359 344 312 331 333 356 286 255 254 261 267 265 263 260 258 256 256 258 259 260 262 262 261 267 271 275 282 282 279 276 274 269 257
29 25 20 18 20 24 20 23 25 22 19 13 351 330 332 326 352 300 258 259 268 263 258 258 260 261 260 259 262 261 263 262 264 265 268 272 277 277 277 275 271 266 261
26 23 20 17 15 13 16 16 15 14 14 15 10 8 347 324 335 330 328 302 275 266 267 252 255 256 262 263 262 261 261 265 258 265 269 273 275 275 274 272 270 266 263
22 18 15 14 12 11 8 8 9 8 7 7 8 7 6 6 351 343 327 321 333 292 264 273 253 252 254 261 259 264 260 262 263 264 264 265 268 273 274 271 268 266 264
21 17 14 10 10 6 5 3 3 3 1 1 3 2 1 0 359 353 347 338 307 322 324 268 276 255 253 255 254 252 254 258 259 261 262 262 265 270 273 271 267 264 262
20 16 14 13 12 10 8 5 1 357 359 358 357 357 357 356 356 356 353 351 342 322 307 330 298 284 267 260 253 244 249 252 254 257 259 260 263 265 268 268 266 264 261
16 13 11 11 11 11 9 6 3 359 358 354 355 353 353 351 350 350 351 350 348 347 336 314 309 334 323 276 279 245 228 238 254 257 255 256 259 260 264 265 263 262 259
10 9 8 7 7 8 7 5 5 5 2 1 355 351 348 347 347 347 345 345 345 343 342 337 321 309 307 314 304 269 249 246 249 253 251 247 249 254 259 262 261 259 258
358 1 3 3 3 5 5 3 1 359 357 355 353 352 352 351 347 344 342 341 341 340 339 337 331 320 307 302 291 310 274 255 246 244 253 249 245 247 254 260 260 256 255
345 353 357 359 359 358 358 356 354 352 350 349 349 348 349 348 348 347 343 339 337 337 336 335 332 329 319 305 295 289 294 267 267 254 254 252 254 254 254 258 259 255 253
Wind_Speed_850mb
37 33 30 29 28 26 24 22 22 22 22 21 17 13 12 12 12 13 14 17 18 18 21 21 19 14 16 17 20 20 18 18 18 20 22 23 25 25 27 29 30 26 27
36 31 27 26 26 24 21 21 23 23 21 17 13 11 10 8 8 11 13 14 19 18 20 19 15 13 15 18 20 17 15 13 13 16 17 17 17 19 20 23 26 24 23
33 25 20 21 24 22 20 21 22 22 16 13 11 9 6 4 2 3 8 12 17 20 16 15 17 17 19 20 18 14 10 8 8 9 12 14 16 13 14 18 19 18 16
30 24 23 21 19 19 19 20 21 17 13 12 8 4 1 2 4 4 6 10 16 24 20 19 20 20 21 19 16 12 7 4 3 3 6 10 11 11 14 16 16 13 11
26 21 24 23 20 20 18 17 18 14 12 8 4 0 4 6 7 6 7 8 14 23 18 17 19 22 20 18 15 12 9 6 6 8 8 9 6 10 15 16 13 9 7
16 15 22 22 18 17 17 15 13 11 8 4 1 2 4 5 6 6 4 5 8 12 18 19 22 20 18 18 17 14 12 11 11 12 12 11 10 15 18 15 11 8 4
19 16 16 16 18 17 17 15 13 10 7 4 5 5 5 4 2 1 1 4 7 12 14 18 19 20 19 20 19 17 16 14 13 13 13 13 15 19 21 14 11 7 5
20 24 24 20 16 15 16 14 12 10 8 7 7 7 7 6 4 3 5 7 10 11 13 14 16 17 19 20 19 17 16 15 14 14 14 15 16 17 14 10 9 6 5
22 26 22 19 17 17 17 15 16 14 13 12 11 10 8 6 6 5 5 7 8 9 11 12 14 16 17 17 16 14 13 13 14 15 16 17 15 14 12 9 6 5 5
24 20 17 18 19 17 17 18 18 18 18 17 16 15 13 12 11 10 10 8 7 8 11 12 14 15 15 15 13 13 13 13 14 15 17 16 14 14 13 9 7 6 5
34 26 10 11 15 15 18 20 20 20 25 22 22 21 20 18 18 16 14 13 13 13 14 15 16 17 17 16 15 14 15 15 16 17 17 14 8 9 10 12 12 10 8
54 50 39 11 5 11 16 24 25 22 22 29 30 29 26 25 24 23 22 21 20 20 20 20 21 21 20 19 19 18 18 18 20 20 20 18 15 15 18 20 17 15 16
65 54 45 37 18 10 8 19 27 28 25 26 31 38 36 34 33 32 31 30 28 27 27 26 27 26 26 26 26 24 24 23 23 24 23 23 22 21 22 21 22 21 22
80 70 59 52 49 42 20 13 34 25 21 34 34 37 41 45 43 41 40 37 36 34 33 33 33 33 33 33 32 32 31 30 27 26 26 26 27 26 26 26 27 27 27
79 73 74 64 55 48 41 32 22 14 20 33 36 35 45 54 52 50 49 47 45 42 41 40 39 40 40 39 39 38 36 35 34 30 29 29 29 31 31 31 31 32 32
75 72 71 68 64 57 48 44 35 31 17 11 17 14 46 39 53 63 58 56 54 51 47 46 45 45 46 46 46 44 43 42 40 36 34 34 35 35 35 34 34 34 33
67 68 70 65 63 59 59 57 54 41 39 28 27 29 26 21 22 59 63 63 59 59 56 52 51 51 52 52 54 51 48 46 46 43 42 39 39 39 37 37 35 34 32
66 64 62 63 61 57 58 56 54 52 51 49 40 37 39 32 33 20 43 54 65 71 64 59 56 58 58 58 59 56 54 53 47 48 50 47 43 42 41 40 38 37 38
68 70 68 65 63 63 57 54 56 55 54 56 54 54 52 46 48 33 21 23 39 52 73 72 66 59 61 62 63 54 59 58 51 54 53 48 49 49 46 44 42 41 42
67 68 69 71 70 68 63 60 57 57 59 58 58 55 57 53 56 53 42 35 32 28 38 70 82 75 71 66 62 64 65 67 62 64 61 56 56 56 54 50 48 46 45
68 72 75 73 72 72 73 74 71 69 65 62 62 65 64 59 59 61 56 55 53 42 33 35 56 82 77 77 75 75 76 77 74 76 73 67 64 63 62 59 54 51 49
68 74 76 73 71 71 70 69 70 69 67 67 64 65 68 69 67 66 65 62 58 53 52 38 28 37 81 85 95 87 72 80 82 85 82 78 75 72 72 68 63 57 54
66 70 74 70 67 68 70 70 69 67 67 70 72 72 72 69 69 70 68 67 67 62 58 52 48 34 41 70 82 93 34 53 66 73 80 80 78 78 76 74 70 65 59
57 62 68 68 64 65 67 69 72 74 76 73 72 70 69 69 70 70 71 71 69 69 64 59 54 52 41 36 52 89 99 74 50 41 55 62 62 64 66 68 70 70 65
51 56 63 66 61 64 68 69 71 69 68 70 72 74 72 69 68 71 74 73 73 71 70 69 60 56 57 47 45 53 91 106 100 87 71 60 59 62 65 65 63 68 67
42 49 59 62 58 62 67 69 70 70 71 72 74 77 78 77 74 69 71 73 75 76 74 73 70 64 58 57 58 53 61 80 82 95 85 83 83 83 82 79 76 72 71
Wind_Direction_850mb
171 169 166 168 169 169 167 163 160 157 155 149 145 138 129 122 116 117 131 140 137 148 132 133 136 140 129 125 131 121 108 93 83 75 67 63 58 53 51 50 51 58 61
175 171 171 170 170 167 165 157 156 154 153 149 144 137 134 130 122 114 128 142 134 131 145 157 168 155 147 139 141 133 120 102 84 72 59 49 47 45 43 42 42 50 60
176 166 170 171 167 162 157 155 155 152 154 149 146 146 148 147 147 143 146 151 161 143 141 163 184 162 159 153 153 150 136 117 92 72 54 40 28 28 26 23 30 41 60
175 168 162 175 160 158 166 163 158 155 155 153 154 157 179 251 260 234 215 185 184 175 147 155 165 159 167 166 173 174 170 152 111 9 356 358 20 16 8 6 12 25 48
183 169 170 179 166 166 171 163 159 161 162 160 157 9 321 305 288 271 261 235 210 201 171 169 173 164 174 183 192 195 204 226 264 296 314 321 352 340 334 340 351 10 35
186 181 174 183 189 185 185 184 173 176 174 174 216 304 304 300 301 313 282 240 209 182 165 168 168 178 187 199 210 219 238 254 271 287 299 302 301 318 314 323 328 340 348
171 173 184 201 204 201 199 200 196 194 198 226 272 298 304 283 219 251 143 130 129 143 157 165 180 193 203 216 227 236 246 259 272 281 286 286 286 289 302 308 314 321 309
167 179 185 188 205 231 219 217 218 224 234 239 257 287 305 291 259 187 155 143 141 148 160 175 189 201 212 223 233 241 251 259 271 281 285 286 285 287 295 298 304 308 298
157 176 187 196 207 202 237 228 231 233 242 253 260 271 282 271 260 249 209 180 153 152 159 171 183 195 207 218 226 234 245 256 272 285 294 298 295 299 305 299 293 296 292
124 169 188 202 211 216 211 243 242 246 251 255 257 264 272 269 249 237 225 217 203 202 202 199 200 201 206 213 224 236 249 265 282 292 302 303 296 291 300 302 287 279 271
68 73 108 206 222 222 228 224 250 264 267 262 261 258 262 265 261 251 240 234 228 222 218 215 213 214 220 231 241 250 261 270 284 294 298 301 314 271 289 288 284 264 252
39 37 44 71 161 233 243 237 226 243 281 284 277 266 262 263 263 260 252 242 237 233 231 227 227 230 232 241 248 256 265 274 286 292 291 291 287 270 269 268 269 264 263
33 32 33 38 52 53 285 273 245 232 237 262 291 284 268 261 262 259 255 250 246 242 241 239 239 239 241 244 252 261 268 275 284 289 286 281 280 279 282 281 272 268 264
39 38 29 26 24 36 31 346 263 245 251 255 250 271 280 275 264 262 260 256 252 248 248 247 247 247 248 251 254 259 265 271 278 285 286 283 282 279 281 282 275 270 269
42 40 37 32 24 20 22 20 6 266 258 263 259 256 259 265 272 271 265 260 258 252 251 250 251 252 254 256 258 259 261 264 269 276 284 286 282 278 276 278 276 272 271
34 35 35 35 35 28 22 13 9 5 352 289 306 309 266 263 252 258 267 266 262 260 258 256 254 255 257 257 258 260 261 261 262 269 274 282 285 282 278 277 274 269 267
29 24 26 30 27 32 31 28 24 4 359 344 312 331 333 356 286 255 254 261 267 265 263 260 258 256 256 258 259 260 262 262 261 267 271 275 282 282 279 276 274 269 257
29 25 20 18 20 24 20 23 25 22 19 13 351 330 332 326 352 300 258 259 268 263 258 258 260 261 260 259 262 261 263 262 264 265 268 272 277 277 277 275 271 266 261
26 23 20 17 15 13 16 16 15 14 14 15 10 8 347 324 335 330 328 302 275 266 267 252 255 256 262 263 262 261 261 265 258 265 269 273 275 275 274 272 270 266 263
22 18 15 14 12 11 8 8 9 8 7 7 8 7 6 6 351 343 327 321 333 292 264 273 253 252 254 261 259 264 260 262 263 264 264 265 268 273 274 271 268 266 264
21 17 14 10 10 6 5 3 3 3 1 1 3 2 1 0 359 353 347 338 307 322 324 268 276 255 253 255 254 252 254 258 259 261 262 262 265 270 273 271 267 264 262
20 16 14 13 12 10 8 5 1 357 359 358 357 357 357 356 356 356 353 351 342 322 307 330 298 284 267 260 253 244 249 252 254 257 259 260 263 265 268 268 266 264 261
16 13 11 11 11 11 9 6 3 359 358 354 355 353 353 351 350 350 351 350 348 347 336 314 309 334 323 276 279 245 228 238 254 257 255 256 259 260 264 265 263 262 259
10 9 8 7 7 8 7 5 5 5 2 1 355 351 348 347 347 347 345 345 345 343 342 337 321 309 307 314 304 269 249 246 249 253 251 247 249 254 259 262 261 259 258
358 1 3 3 3 5 5 3 1 359 357 355 353 352 352 351 347 344 342 341 341 340 339 337 331 320 307 302 291 310 274 255 246 244 253 249 245 247 254 260 260 256 255
345 353 357 359 359 358 358 356 354 352 350 349 349 348 349 348 348 347 343 339 337 337 336 335 332 329 319 305 295 289 294 267 267 254 254 252 254 254 254 258 259 255 253